Terug naar catalogus

COSMOS 2251 DEB

ActiefLEO
NORAD 34122·DEBRIS·🇷🇺 Russia

Gelanceerd Jun 16, 1993 vanaf Plesetsk Cosmodrome

Loading…

Volgende Passages (komende 24 uur)

TLE

VersSource: Space-Track

Epoch: Sep 14, 2026, 10:19 UTC

1 34122U 93036KT  26257.43027719  .00002963  00000-0  49754-3 0  9990
2 34122  74.0347 306.7034 0077090 133.7774 240.5859 14.68183278927275

Volg COSMOS 2251 DEB in realtime met AllMySat

Download on the App Store